[[{"header":{"parameterUnit":"m.s-1","parameterCategory":1,"la1":30.2991,"la2":30.254,"lo1":-89.0895,"lo2":-89.0444,"dy":0.0017,"dx":0.0017,"nx":28,"ny":28,"refTime":"2024-06-05T03:00:00:Z","depth":0,"parameterNumber":2,"parameterNumberName":"U-component_of_WINDS"},"data":[0,0,0,0,0,0,0,0,0,0,0,0,0,0,0,0,0,0,0,0,0,0,0,0,0,0,0,0,0,0,0,0,0,0,0,0,0,0,0,0,0,0,0,0,0,0,0,0,0,0,0,0,0,0,0,0,0,0,-0.9564,-0.9564,0,-0.9602,-0.9602,-0.9603,-0.9628,-0.9628,-0.9628,-0.9628,-0.9668,-0.9669,-0.967,0,0,0,0,0,0,0,0,0,0,0,0,0,-0.9514,-0.9515,-0.9564,-0.9564,-0.9565,-0.9602,-0.9602,-0.9603,-0.9628,-0.9628,-0.9628,-0.9628,-0.9667,-0.9669,-0.967,0,0,0,0,0,0,0,0,0,0,0,0,0,-0.9542,-0.9515,-0.9564,-0.9582,-0.9584,-0.9602,-0.9602,-0.9603,-0.9628,-0.9628,-0.9628,-0.9629,-0.9667,-0.9668,-0.967,-0.9673,0,0,-0.9674,-0.9674,0,0,0,0,0,0,0,0,-0.9541,-0.9544,-0.9579,-0.958,-0.9583,-0.961,-0.9599,-0.9627,-0.9628,-0.9611,-0.9628,-0.9629,-0.9649,-0.9651,-0.9658,-0.9675,-0.9677,-0.9674,-0.9675,-0.9675,-0.9676,0,0,0,0,0,0,0,-0.9539,-0.9543,-0.9579,-0.9579,-0.9582,-0.9588,-0.9593,-0.9605,-0.9628,-0.9613,-0.9614,-0.9619,-0.965,-0.9657,-0.9659,-0.9677,-0.9674,-0.9675,-0.9676,-0.9677,-0.9701,-0.9701,0,0,0,0,0,0,-0.9534,-0.9541,-0.9578,-0.958,-0.9562,-0.9589,-0.9594,-0.9601,-0.9628,-0.9632,-0.9618,-0.962,-0.9654,-0.9658,-0.9661,-0.9667,-0.9675,-0.9677,-0.9677,-0.9701,-0.9701,-0.9701,0,0,0,0,0,0,-0.9533,-0.9537,-0.9576,-0.9561,-0.9567,-0.959,-0.9598,-0.9602,-0.9609,-0.9632,-0.9637,-0.9621,-0.9655,-0.9659,-0.967,-0.9669,-0.9677,-0.9678,-0.9701,-0.9701,-0.9701,-0.968,0,0,0,0,0,0,-0.9531,-0.9536,-0.9537,-0.9561,-0.9567,-0.9585,-0.9598,-0.9602,-0.9611,-0.9613,-0.9636,-0.964,-0.9655,-0.9668,-0.9672,-0.9671,-0.968,-0.9701,-0.9701,-0.9701,-0.9681,-0.9679,-0.9678,0,0,0,0,0,-0.9529,-0.953,-0.9537,-0.9542,-0.9569,-0.9584,-0.9588,-0.9605,-0.9611,-0.9613,-0.9628,-0.9639,-0.9669,-0.9669,-0.9673,-0.9673,-0.9702,-0.9701,-0.9701,-0.9682,-0.9679,-0.9678,0,0,0,0,0,0,-0.9505,-0.9533,-0.9542,-0.955,-0.9565,-0.9589,-0.9591,-0.9602,-0.9616,-0.9617,-0.9638,-0.9643,-0.9653,-0.9664,-0.9664,-0.9679,-0.9687,-0.9687,-0.9671,-0.9669,-0.9667,-0.9664,-0.9681,0,0,0,0,0,-0.9501,-0.9511,-0.9535,-0.9539,-0.9547,-0.9567,-0.9575,-0.9587,-0.9603,-0.961,-0.9626,-0.9641,-0.9654,-0.9662,-0.9675,-0.9683,-0.9689,-0.9685,-0.9683,-0.9682,-0.9682,-0.9688,-0.9687,-0.9699,-0.9699,-0.97,0,0,-0.9492,-0.9508,-0.9513,-0.9535,-0.9548,-0.9558,-0.9572,-0.9582,-0.9591,-0.9611,-0.9623,-0.9636,-0.9655,-0.9665,-0.967,-0.9674,-0.968,-0.9681,-0.968,-0.9681,-0.9688,-0.9687,-0.9685,-0.9699,-0.9699,-0.9699,0,0,-0.9481,-0.9494,-0.95,-0.9513,-0.9532,-0.9547,-0.9548,-0.9571,-0.958,-0.9592,-0.9608,-0.9619,-0.964,-0.9653,-0.9663,-0.9659,-0.967,-0.9663,-0.9654,-0.9659,-0.9658,-0.9658,-0.9657,-0.9656,-0.9663,-0.9663,-0.9663,0,-0.9467,-0.9483,-0.9501,-0.9511,-0.952,-0.954,-0.9547,-0.9559,-0.9581,-0.9588,-0.9593,-0.9621,-0.9635,-0.9649,-0.9648,-0.9655,-0.9658,-0.966,-0.9657,-0.9656,-0.9656,-0.9656,-0.9655,-0.9662,-0.9662,-0.9662,-0.9662,0,-0.9465,-0.9476,-0.9479,-0.9501,-0.9511,-0.9519,-0.9539,-0.9547,-0.9559,-0.9573,-0.9586,-0.9604,-0.9622,-0.9626,-0.9637,-0.9642,-0.9645,-0.9653,-0.9661,-0.9653,-0.9653,-0.9653,-0.966,-0.966,-0.9661,-0.9661,0,0,-0.9439,-0.9472,-0.9473,-0.9483,-0.9507,-0.9516,-0.9526,-0.9543,-0.955,-0.9566,-0.9575,-0.9593,-0.9602,-0.9613,-0.9626,-0.9631,-0.9628,-0.9639,-0.964,-0.9637,-0.9635,-0.9629,-0.9628,-0.9636,-0.9636,-0.9636,-0.9634,0,-0.9431,-0.9449,-0.9467,-0.9478,-0.9489,-0.9509,-0.9518,-0.9534,-0.9547,-0.9559,-0.9575,-0.9588,-0.9597,-0.9604,-0.961,-0.9627,-0.9628,-0.9627,-0.9645,-0.9645,-0.9639,-0.9628,-0.9621,-0.9618,-0.9634,-0.9634,-0.9634,0,-0.9425,-0.944,-0.9452,-0.9476,-0.9482,-0.9489,-0.9507,-0.9518,-0.9537,-0.9547,-0.956,-0.9574,-0.9586,-0.9594,-0.9611,-0.9611,-0.9619,-0.9629,-0.9629,-0.9631,-0.9639,-0.963,-0.9617,-0.9617,-0.9634,-0.9634,-0.9634,0,-0.9405,-0.9428,-0.9439,-0.9448,-0.9476,-0.9481,-0.9493,-0.9512,-0.9522,-0.9538,-0.9545,-0.9562,-0.9572,-0.9585,-0.9605,-0.9608,-0.962,-0.9629,-0.9629,-0.9629,-0.9631,-0.963,-0.9619,-0.9636,-0.9636,-0.9636,-0.9636,0,-0.9394,-0.9401,-0.9431,-0.9437,-0.9446,-0.9467,-0.9476,-0.949,-0.9507,-0.9518,-0.9536,-0.9546,-0.957,-0.9583,-0.9598,-0.9611,-0.9615,-0.9624,-0.9628,-0.9622,-0.9621,-0.9628,-0.9629,-0.9636,-0.9636,-0.9636,-0.9636,0,-0.9373,-0.9393,-0.9406,-0.9432,-0.9439,-0.9445,-0.9467,-0.9475,-0.9491,-0.9504,-0.9508,-0.9532,-0.9548,-0.9569,-0.9592,-0.9602,-0.9613,-0.9619,-0.9606,-0.9609,-0.9608,-0.9608,-0.9601,-0.9601,-0.9617,-0.9617,-0.9617,0,-0.9365,-0.9371,-0.9398,-0.9406,-0.9418,-0.9431,-0.9441,-0.9463,-0.9473,-0.9497,-0.9502,-0.952,-0.9535,-0.956,-0.958,-0.9598,-0.9604,-0.9601,-0.9607,-0.9602,-0.9605,-0.9604,-0.9605,-0.9599,-0.9599,-0.9598,-0.9598,0,-0.9349,-0.9359,-0.9373,-0.9391,-0.9403,-0.9418,-0.9434,-0.944,-0.9465,-0.9476,-0.9493,-0.9505,-0.9528,-0.9546,-0.9567,-0.958,-0.9594,-0.9596,-0.9597,-0.9591,-0.9584,-0.9589,-0.9602,-0.9596,-0.9596,-0.9596,-0.9597,-0.9597,-0.9335,-0.9341,-0.9362,-0.9377,-0.9392,-0.9407,-0.9416,-0.9433,-0.9447,-0.9468,-0.948,-0.9497,-0.9518,-0.9547,-0.956,-0.9574,-0.9579,-0.958,-0.958,-0.958,-0.9579,-0.9582,-0.9578,-0.9578,-0.9578,-0.9578,-0.9578,0,-0.932,-0.9334,-0.9348,-0.9371,-0.9383,-0.9395,-0.9414,-0.9424,-0.9438,-0.9456,-0.9471,-0.9491,-0.9509,-0.9531,-0.955,-0.9557,-0.9564,-0.9562,-0.9561,-0.9565,-0.9573,-0.957,-0.9556,-0.9556,-0.9556,-0.9556,-0.9556,-0.9556,-0.9314,-0.9326,-0.9339,-0.9359,-0.9374,-0.939,-0.94,-0.9414,-0.9429,-0.9451,-0.9465,-0.948,-0.95,-0.9521,-0.9538,-0.9544,-0.9551,-0.9546,-0.9554,-0.9562,-0.9564,-0.9566,-0.9563,-0.9548,-0.9548,-0.9545,-0.9545,-0.9545]},{"header":{"parameterUnit":"m.s-1","parameterCategory":1,"la1":30.2991,"la2":30.254,"lo1":-89.0895,"lo2":-89.0444,"dy":0.0017,"dx":0.0017,"nx":28,"ny":28,"refTime":"2024-06-05T03:00:00:Z","depth":0,"parameterNumber":3,"parameterNumberName":"V-component_of_WINDS"},"data":[0,0,0,0,0,0,0,0,0,0,0,0,0,0,0,0,0,0,0,0,0,0,0,0,0,0,0,0,0,0,0,0,0,0,0,0,0,0,0,0,0,0,0,0,0,0,0,0,0,0,0,0,0,0,0,0,0,0,4.2185,4.2186,0,4.2258,4.2259,4.226,4.2255,4.2254,4.2253,4.2252,4.2323,4.2326,4.2329,0,0,0,0,0,0,0,0,0,0,0,0,0,4.2038,4.2041,4.2185,4.2186,4.2187,4.2258,4.2259,4.226,4.2255,4.2254,4.2253,4.2252,4.2322,4.2325,4.2329,0,0,0,0,0,0,0,0,0,0,0,0,0,4.2106,4.2042,4.2185,4.2193,4.2195,4.2258,4.2259,4.226,4.2256,4.2254,4.2253,4.2251,4.2321,4.2325,4.2329,4.2387,0,0,4.2342,4.2344,0,0,0,0,0,0,0,0,4.2102,4.2111,4.2191,4.2193,4.2195,4.2246,4.2233,4.2303,4.2256,4.2232,4.2252,4.225,4.2298,4.2304,4.2321,4.2391,4.2394,4.2343,4.2345,4.2347,4.2348,0,0,0,0,0,0,0,4.2097,4.2108,4.2214,4.2192,4.2194,4.2192,4.22,4.2246,4.2273,4.2234,4.2234,4.2243,4.2299,4.2317,4.2323,4.2395,4.2343,4.2346,4.2349,4.2351,4.2516,4.2517,0,0,0,0,0,0,4.2091,4.2104,4.2211,4.2216,4.2143,4.2196,4.2205,4.2231,4.2273,4.2278,4.2244,4.2243,4.2311,4.2318,4.2325,4.2397,4.2347,4.2351,4.2354,4.2514,4.2516,4.2518,0,0,0,0,0,0,4.2088,4.2101,4.2208,4.216,4.2174,4.22,4.223,4.2233,4.2252,4.228,4.2285,4.2259,4.231,4.2319,4.2372,4.2399,4.2353,4.2357,4.2512,4.2514,4.2517,4.2539,0,0,0,0,0,0,4.2084,4.21,4.2123,4.2161,4.2176,4.2255,4.2231,4.2236,4.226,4.2258,4.2295,4.2299,4.2309,4.2366,4.2377,4.2404,4.236,4.2509,4.2513,4.2516,4.2536,4.2543,4.2548,0,0,0,0,0,4.2078,4.2125,4.2124,4.2137,4.2206,4.2257,4.2266,4.2277,4.2262,4.2285,4.2303,4.2298,4.2394,4.2371,4.2383,4.2413,4.2508,4.2512,4.2516,4.2534,4.2541,4.2548,0,0,0,0,0,0,4.2088,4.213,4.2129,4.219,4.222,4.2256,4.2285,4.2285,4.2319,4.2316,4.2328,4.2336,4.2389,4.2406,4.238,4.2471,4.2449,4.2456,4.2459,4.2466,4.2472,4.2466,4.2364,0,0,0,0,0,4.2097,4.2137,4.2171,4.2221,4.2236,4.2258,4.2281,4.2288,4.2319,4.2331,4.2353,4.2383,4.242,4.2444,4.2479,4.2539,4.2547,4.2565,4.257,4.2575,4.2581,4.2614,4.2623,4.2531,4.2531,4.2531,0,0,4.2117,4.2145,4.2168,4.2223,4.2248,4.2287,4.2269,4.2311,4.234,4.2337,4.2389,4.2406,4.244,4.2497,4.2523,4.2512,4.2608,4.258,4.2584,4.2587,4.2619,4.2628,4.2635,4.2534,4.2534,4.2533,0,0,4.2172,4.2197,4.2242,4.2267,4.2305,4.2319,4.233,4.2367,4.2378,4.2431,4.243,4.2464,4.2527,4.2551,4.2572,4.2637,4.2634,4.2648,4.2678,4.2711,4.2718,4.2724,4.2748,4.2757,4.2654,4.2654,4.2654,0,4.2191,4.2252,4.2265,4.2308,4.2332,4.2333,4.2378,4.2401,4.2447,4.2464,4.2451,4.2532,4.2554,4.2617,4.2633,4.265,4.2662,4.2644,4.2716,4.2723,4.2729,4.2752,4.276,4.2656,4.2655,4.2655,4.2655,0,4.2273,4.2315,4.2347,4.2394,4.2421,4.2465,4.2484,4.251,4.2514,4.253,4.2584,4.2611,4.2652,4.2667,4.2671,4.2731,4.2724,4.2714,4.2691,4.2739,4.2761,4.2769,4.2658,4.2657,4.2657,4.2656,0,0,4.2337,4.2391,4.2403,4.2424,4.2466,4.2498,4.2541,4.2584,4.2606,4.2638,4.2675,4.2729,4.272,4.2743,4.275,4.2778,4.2829,4.2765,4.2766,4.2776,4.2897,4.2905,4.2915,4.2827,4.2829,4.283,4.2895,0,4.2397,4.2476,4.249,4.2558,4.2597,4.2598,4.2636,4.2665,4.2681,4.2716,4.2732,4.2771,4.2756,4.2771,4.2799,4.2817,4.2854,4.2813,4.2861,4.2862,4.2853,4.2926,4.2934,4.2993,4.2903,4.2904,4.2906,0,4.2478,4.2514,4.2587,4.2625,4.2641,4.2675,4.2715,4.2749,4.2781,4.2791,4.2817,4.2821,4.2865,4.2841,4.2902,4.2874,4.2895,4.2907,4.2909,4.2914,4.2887,4.2933,4.3013,4.3022,4.2919,4.2918,4.2917,0,4.2518,4.2584,4.2637,4.2655,4.27,4.2724,4.2743,4.2775,4.2799,4.2834,4.285,4.2888,4.2909,4.2939,4.2952,4.2933,4.3013,4.2989,4.3021,4.3021,4.3038,4.3037,4.3122,4.3051,4.305,4.305,4.305,0,4.2584,4.2629,4.2656,4.2688,4.2738,4.2753,4.2801,4.282,4.2848,4.2883,4.2886,4.2919,4.2934,4.2969,4.298,4.3029,4.3039,4.3047,4.3049,4.3047,4.3046,4.3061,4.3057,4.3053,4.3052,4.3052,4.3051,0,4.2637,4.2657,4.2714,4.2752,4.2763,4.2798,4.283,4.2861,4.2877,4.2922,4.2933,4.2957,4.2999,4.3015,4.3065,4.3072,4.3129,4.3128,4.3119,4.312,4.3151,4.3148,4.3249,4.3263,4.3182,4.3182,4.3183,0,4.2678,4.2713,4.2755,4.278,4.2801,4.284,4.2866,4.2881,4.2907,4.2948,4.2974,4.3016,4.305,4.3116,4.3137,4.3176,4.3176,4.3208,4.3181,4.3178,4.3177,4.3175,4.3179,4.3213,4.3214,4.3215,4.3215,0,4.2749,4.2758,4.2795,4.2837,4.2868,4.2901,4.2933,4.2952,4.2972,4.3002,4.3045,4.3072,4.3124,4.3165,4.3205,4.3224,4.3223,4.3224,4.3233,4.3232,4.3225,4.323,4.3133,4.3221,4.3221,4.322,4.322,4.322,4.2798,4.283,4.2865,4.2906,4.2932,4.2962,4.2994,4.3014,4.3051,4.3096,4.3102,4.3148,4.318,4.3234,4.3255,4.329,4.3282,4.3295,4.3299,4.3302,4.3305,4.3219,4.3298,4.3297,4.3297,4.3297,4.3297,0,4.287,4.2893,4.2931,4.2977,4.301,4.3008,4.3043,4.307,4.3112,4.3142,4.3177,4.3226,4.3267,4.3292,4.3332,4.3356,4.3357,4.3366,4.3365,4.3369,4.331,4.3298,4.3365,4.3365,4.3365,4.3365,4.3365,4.3365,4.2912,4.2965,4.2977,4.3043,4.3065,4.3112,4.3133,4.316,4.3185,4.3241,4.3275,4.3291,4.332,4.3362,4.3399,4.3405,4.342,4.343,4.3436,4.338,4.3373,4.3366,4.3355,4.3433,4.3433,4.3492,4.3493,4.3493]}]]